This is the latest recevied weather packets stored in our database for station/object JP3QZN-13. If no packets are shown the sender has not sent any weather packets the latest 10 day(s).
| Time | Temp. | Humidity | Pressure | Rain* | Wind** | Luminosity | Snow |
|---|---|---|---|---|---|---|---|
| 1777777223 | 21.67° C | 55% | 1011 hPa | 0 mm | - | - | - |
| 1777775422 | 21.67° C | 55% | 1011.4 hPa | 0 mm | - | - | - |
| 1777773621 | 21.67° C | 54% | 1012.1 hPa | 0 mm | - | - | - |
| 1777771825 | 21.11° C | 54% | 1013.1 hPa | 0 mm | - | - | - |
| 1777771800 | 21.11° C | 54% | 1013.2 hPa | 0 mm | - | - | - |
| 1777770024 | 20.56° C | 55% | 1013.6 hPa | 0 mm | - | - | - |
| 1777769999 | 20.56° C | 55% | 1013.7 hPa | 0 mm | - | - | - |
| 1777768888 | 20.56° C | 56% | 1014 hPa | 0 mm | - | - | - |
| 1777768853 | 20.56° C | 56% | 1014 hPa | 0 mm | - | - | - |
| 1777768227 | 20° C | 56% | 1013.9 hPa | 0 mm | - | - | - |
| 1777766426 | 20° C | 58% | 1013.7 hPa | 0 mm | - | - | - |
| 1777764625 | 18.89° C | 60% | 1013.9 hPa | 0 mm | - | - | - |
| 1777762824 | 18.33° C | 62% | 1013.9 hPa | 0 mm | - | - | - |
| 1777761023 | 17.78° C | 62% | 1014.3 hPa | 0 mm | - | - | - |
| 1777759222 | 17.78° C | 63% | 1015 hPa | 0 mm | - | - | - |
| 1777757421 | 17.78° C | 63% | 1014.6 hPa | 0 mm | - | - | - |
| 1777755620 | 17.22° C | 62% | 1015 hPa | 0 mm | - | - | - |
| 1777753819 | 17.78° C | 62% | 1014.7 hPa | 0 mm | - | - | - |
| 1777752018 | 17.78° C | 63% | 1014.4 hPa | 0 mm | - | - | - |
| 1777750217 | 17.78° C | 64% | 1014.1 hPa | 0 mm | - | - | - |
| 1777748416 | 17.78° C | 62% | 1014.7 hPa | 0 mm | - | - | - |
| 1777746615 | 17.78° C | 62% | 1014.3 hPa | 0 mm | - | - | - |
| 1777743013 | 17.78° C | 61% | 1014.5 hPa | 0 mm | - | - | - |
| 1777741212 | 17.78° C | 61% | 1014.3 hPa | 0 mm | - | - | - |
| 1777739412 | 17.78° C | 61% | 1014.3 hPa | 0 mm | - | - | - |
* Rain latest hour (hover to see other rain measurements)
** Current wind speed in m/s (hover to see current wind gust speed)